Weather History for Haleyville, AL

Change the Weather History Date:

Sunday, June 23, 2013

  Actual Average (KJFX) Record (KJFX)
Temperature  
Mean Temperature 76 °F -  
Max Temperature 88 °F 87 °F 97 °F (1964)
Min Temperature 63 °F 63 °F 49 °F (1972)
Cooling Degree Days 10    
Growing Degree Days 26 (Base 50)    
Moisture  
Dew Point 67 °F    
Average Humidity 75    
Maximum Humidity 100    
Minimum Humidity 49    
Precipitation  
Precipitation 0.00 in - - ()
Sea Level Pressure  
Sea Level Pressure 30.18 in    
Wind  
Wind Speed 1 mph (SSE)    
Max Wind Speed 7 mph    
Max Gust Speed -    
Visibility 10 miles    
Events      
Averages and records for this station are not official NWS values.
T = Trace of Precipitation, MM = Missing Value Source: NWS Daily Summary

Daily Weather History Graph

Daily Weather History Graph

Search for Another Location

Airport:

Trip Planner

Search our weather history database for the weather conditions in past years. The results will help you decide how hot, cold, wet, or windy it might be!

Date:

Astronomy

Jun. 23, 2013 Rise Set
Actual Time 5:39 AM CDT 8:06 PM CDT
Civil Twilight 5:09 AM CDT 8:35 PM CDT
Nautical Twilight 4:33 AM CDT 9:11 PM CDT
Astronomical Twilight 3:54 AM CDT 9:51 PM CDT
Moon 8:21 PM CDT (6/23) 5:53 AM CDT (6/23)
Length of Visible Light 15h 25m
Length of Day
14h 26m
Full, 100% of the Moon is Illuminated
Jun 23
Full
Jun 29
Last Quarter
Jul 8
New
Jul 15
First Quarter
Jul 22
Full

Hourly Weather History & Observations

Time (CDT) Temp. Heat Index Dew Point Humidity Pressure Visibility Wind Dir Wind Speed Gust Speed Precip Events Conditions
12:56 AM 66.9 °F - 64.9 °F 93% 30.17 in 10.0 mi Calm Calm - N/A   Clear
1:56 AM 68.9 °F - 61.9 °F 78% 30.15 in 10.0 mi Calm Calm - N/A   Clear
2:56 AM 70.0 °F - 61.9 °F 75% 30.14 in 10.0 mi Calm Calm - N/A   Clear
3:56 AM 63.9 °F - 63.0 °F 97% 30.16 in 10.0 mi Calm Calm - N/A   Clear
4:56 AM 63.0 °F - 63.0 °F 100% 30.16 in 9.0 mi Calm Calm - N/A   Clear
5:56 AM 63.9 °F - 63.0 °F 97% 30.19 in 10.0 mi Calm Calm - N/A   Clear
6:56 AM 66.9 °F - 63.9 °F 90% 30.20 in 10.0 mi Calm Calm - N/A   Partly Cloudy
7:56 AM 73.9 °F - 66.9 °F 79% 30.22 in 10.0 mi Calm Calm - N/A   Partly Cloudy
8:56 AM 74.8 °F - 66.9 °F 76% 30.23 in 10.0 mi South 5.8 mph - N/A   Clear
9:56 AM 79.0 °F - 68.9 °F 71% 30.23 in 10.0 mi Calm Calm - N/A   Clear
10:56 AM 82.9 °F 86.3 °F 68.9 °F 62% 30.23 in 10.0 mi Calm Calm - N/A   Clear
11:56 AM 84.9 °F 87.6 °F 66.9 °F 55% 30.22 in 10.0 mi SE 3.5 mph - N/A   Clear
12:56 PM 86.0 °F 89.4 °F 68.0 °F 55% 30.20 in 10.0 mi SE 6.9 mph - N/A   Partly Cloudy
1:56 PM 88.0 °F 90.7 °F 66.9 °F 49% 30.18 in 10.0 mi Calm Calm - N/A   Partly Cloudy
2:56 PM 88.0 °F 90.7 °F 66.9 °F 49% 30.17 in 10.0 mi Variable 4.6 mph - N/A   Scattered Clouds
3:56 PM 88.0 °F 90.7 °F 66.9 °F 49% 30.17 in 10.0 mi Calm Calm - N/A   Partly Cloudy
4:56 PM 86.9 °F 89.6 °F 66.9 °F 51% 30.15 in 10.0 mi Calm Calm - N/A   Partly Cloudy
5:56 PM 86.0 °F 88.8 °F 66.9 °F 53% 30.15 in 10.0 mi Variable 4.6 mph - N/A   Clear
6:56 PM 82.9 °F 87.0 °F 70.0 °F 65% 30.15 in 10.0 mi SSE 6.9 mph - N/A   Clear
7:56 PM 77.9 °F - 70.0 °F 76% 30.16 in 10.0 mi Calm Calm - N/A   Clear
8:56 PM 73.9 °F - 70.0 °F 87% 30.17 in 10.0 mi Calm Calm - N/A   Clear
9:56 PM 70.9 °F - 70.0 °F 97% 30.19 in 10.0 mi Calm Calm - N/A   Clear
10:56 PM 70.0 °F - 70.0 °F 100% 30.21 in 6.0 mi Calm Calm - N/A   Clear
11:56 PM 68.9 °F - 68.9 °F 100% 30.20 in 4.0 mi Calm Calm - N/A   Clear